Other Public Products
Issued by NWS Charleston, SC

Home | Current Version | Previous Version | Text Only | Print | Product List | Glossary On
Versions: 1 2 3 4 5 6 7 8 9 10 11 12 13 14 15 16 17 18 19 20 21 22 23 24 25 26 27 28 29 30 31 32 33 34 35 36 37 38 39 40 41 42 43 44 45 46 47 48 49 50
283
FPUS82 KCHS 240712
OPUCHS

TEST...KCHS/KSAV Gateway Observations...TEST
National Weather Service Charleston SC
200 AM EST FRI FEB 24 2017

NOTE: "fair" indicates few or no clouds below 12,000 feet with no
significant weather and/or obstructions to visibility.

SCZ050-WAZ558-NCZ071-TXZ119-213-PAZ071-DCZ001-FLZ074-172-MI076-
NYZ176-178-MAZ016-IL014-TNZ027-NJZ106-GAZ044-MD014-240800-
...Gateway Observations for Charleston International...

CITY           SKY/WX    TMP DP  RH WIND       PRES   REMARKS
Chas Airport   CLEAR     59  56  89 NE7       29.86F
Seattle        CLOUDY    35  32  88 S7        30.18  WCI  29
Charlotte      CLEAR     57  50  77 SE5       29.92F
Dallas DFW     PTCLDY    69  59  70 S14       29.56S
Dallas Love    PTCLDY    70  59  68 SW7G17    29.58S
Philladelphia  CLEAR     55  50  83 S7        29.93R
Wash National  PTCLDY    58  52  80 S9        29.90S
Baltimore      PTCLDY    52  50  93 CALM      29.90S
Miami          CLEAR     65  63  93 CALM      29.72F
Detroit        CLOUDY    41  38  89 NE8       29.80F
Newark         PTCLDY    56  50  80 S7        29.90S
Laguardia      PTCLDY    56  47  71 S8        29.91R
J F K          PTCLDY    48  47  96 S6        29.93S
Boston Logan   CLEAR     50  48  93 SW9       29.90R
Ft. Lauderdale CLEAR     66  63  90 W5        29.71S
Chicago O`Hare LGT RAIN  40  37  89 NE21G30   29.63F WCI  30
Chicago Midway CLOUDY    41  38  89 NE16G22   29.61F
Houston Bush   PTCLDY    65  62  90 S10       29.66F
Houston Hobby  MOCLDY    66  64  93 SE10      29.67S
Nashville      PTCLDY    63  55  75 S8        29.76S
Atlanta        PTCLDY    60  52  74 SE5       29.88S

$$

GAZ044-118-TXZ119-213-NCZ071-DCZ001-MDZ014-506-PAZ021-071-NJZ106-
NYZ176-178-MAZ106-OHZ011-021-055-MIZ076-KYZ091-ILZ014-INZ047-
MNZ060-ONZ431-240800-
...Gateway Observations for Savannah International...

CITY           SKY/WX    TMP DP  RH WIND       PRES   REMARKS
Savannah Arpt  CLEAR     59  57  93 N6        29.87S
Atlanta        PTCLDY    60  52  74 SE5       29.88S
Charlotte      CLEAR     57  50  77 SE5       29.92F
Dallas DFW     PTCLDY    69  59  70 S14       29.56S
Houston Bush   PTCLDY    65  62  90 S10       29.66F
Wash National  PTCLDY    58  52  80 S9        29.90S
Wash Dulles    PTCLDY    59  49  69 S6        29.89R
Baltimore      PTCLDY    52  50  93 CALM      29.90S
Philadelphia   CLEAR     55  50  83 S7        29.93R
Newark         PTCLDY    56  50  80 S7        29.90S
Laguardia      PTCLDY    56  47  71 S8        29.91R
J F K          PTCLDY    48  47  96 S6        29.93S
Boston         CLEAR     50  48  93 SW9       29.90R
Pittsburg      CLOUDY    57  53  86 S5        29.81S
Akron          MOCLDY    58  54  86 S10       29.76F
Cleveland      CLOUDY    51  47  86 CALM      29.77F FOG
Cincinnati     PTCLDY    57  53  86 S9        29.72S
Columbus       CLOUDY    59  55  87 S9        29.75S
Detroit        CLOUDY    41  38  89 NE8       29.80F
Chicago O`Hare LGT RAIN  40  37  89 NE21G30   29.63F WCI  30
Minneapolis    CLOUDY    29  20  69 N16G28    29.87F WCI  17
Indianapolis   MOCLDY    60  54  80 SE13      29.64F
Toronto Canada MOCLDY    39  34  81 NE6       29.90R WCI  35

$$




USA.gov is the U.S. government's official web portal to all federal, state and local government web resources and services.